TimeEDT,TemperatureF,Dew PointF,Humidity,Sea Level PressureIn,VisibilityMPH,Wind Direction,Wind SpeedMPH,Gust SpeedMPH,PrecipitationIn,Events,Conditions,WindDirDegrees,DateUTC
12:53 AM,81.0,75.9,85,30.12,10.0,East,6.9,-,N/A,,Partly Cloudy,80,2012-10-04 04:53:00
1:53 AM,82.9,75.9,79,30.11,10.0,ENE,9.2,-,N/A,,Clear,60,2012-10-04 05:53:00
2:53 AM,82.9,77.0,82,30.09,10.0,ENE,6.9,-,N/A,,Clear,60,2012-10-04 06:53:00
3:53 AM,82.9,78.1,85,30.07,10.0,ENE,6.9,-,N/A,,Clear,70,2012-10-04 07:53:00
4:53 AM,82.0,79.0,90,30.07,10.0,East,9.2,-,0.01,,Scattered Clouds,80,2012-10-04 08:53:00
5:53 AM,82.9,78.1,85,30.08,10.0,East,8.1,-,N/A,,Partly Cloudy,100,2012-10-04 09:53:00
6:53 AM,82.9,78.1,85,30.09,10.0,East,6.9,-,N/A,,Partly Cloudy,100,2012-10-04 10:53:00
7:53 AM,84.0,79.0,85,30.10,10.0,East,8.1,-,N/A,,Partly Cloudy,100,2012-10-04 11:53:00
8:53 AM,84.9,79.0,82,30.11,10.0,East,9.2,-,N/A,,Clear,100,2012-10-04 12:53:00
9:53 AM,87.1,79.0,77,30.13,10.0,East,8.1,-,N/A,,Partly Cloudy,100,2012-10-04 13:53:00
10:53 AM,88.0,77.0,70,30.14,10.0,ESE,6.9,-,N/A,,Clear,120,2012-10-04 14:53:00
11:38 AM,87.8,78.8,75,30.14,10.0,Variable,6.9,-,N/A,,Mostly Cloudy,0,2012-10-04 15:38:00
11:43 AM,87.8,78.8,75,30.14,10.0,East,8.1,-,N/A,Thunderstorm,Mostly Cloudy,100,2012-10-04 15:43:00
11:53 AM,87.1,77.0,72,30.14,10.0,ESE,6.9,-,N/A,Thunderstorm,Mostly Cloudy,120,2012-10-04 15:53:00
12:07 PM,84.2,75.2,74,30.14,10.0,SE,5.8,-,N/A,,Mostly Cloudy,140,2012-10-04 16:07:00
12:26 PM,82.4,77.0,84,30.13,1.8,SE,6.9,-,0.04,Rain,Rain,130,2012-10-04 16:26:00
12:32 PM,82.4,78.8,89,30.13,3.0,ESE,3.5,-,0.04,Rain,Light Rain,120,2012-10-04 16:32:00
12:53 PM,87.1,81.0,82,30.12,10.0,East,10.4,-,0.04,,Scattered Clouds,90,2012-10-04 16:53:00
1:53 PM,89.1,79.0,72,30.10,10.0,East,9.2,-,N/A,,Scattered Clouds,80,2012-10-04 17:53:00
2:53 PM,89.1,78.1,70,30.07,10.0,East,9.2,-,N/A,,Partly Cloudy,80,2012-10-04 18:53:00
3:53 PM,87.1,75.9,69,30.06,10.0,East,3.5,-,0.01,Rain,Light Rain,80,2012-10-04 19:53:00
4:53 PM,87.1,77.0,72,30.04,10.0,East,10.4,-,N/A,,Partly Cloudy,80,2012-10-04 20:53:00
5:53 PM,87.1,77.0,72,30.04,10.0,East,6.9,-,N/A,,Partly Cloudy,90,2012-10-04 21:53:00
6:53 PM,86.0,77.0,74,30.05,10.0,ENE,9.2,-,N/A,,Partly Cloudy,70,2012-10-04 22:53:00
7:53 PM,84.9,75.9,74,30.07,10.0,ENE,5.8,-,N/A,,Clear,70,2012-10-04 23:53:00
8:53 PM,84.9,77.0,77,30.08,10.0,ENE,5.8,-,N/A,,Clear,70,2012-10-05 00:53:00
9:53 PM,84.9,77.0,77,30.09,10.0,ENE,8.1,-,N/A,,Scattered Clouds,70,2012-10-05 01:53:00
10:53 PM,84.9,77.0,77,30.09,10.0,NE,11.5,-,N/A,,Mostly Cloudy,50,2012-10-05 02:53:00
11:53 PM,84.0,79.0,85,30.09,10.0,NE,10.4,-,0.00,,Scattered Clouds,50,2012-10-05 03:53:00